Flag Weather past 2 weeks in Swansea, Wales, United Kingdom

Now
48 °F

Cool.


Feels Like: 47 °F
Forecast: 39 / 48 °F
Wind: 3 mph from North

Location: Mumbles

Current Time: Nov 26, 2014 at 1:53:01 PM

Latest Report: Nov 26, 2014 at 1:00 PM


Visibility: N/A

Pressure: 29.89 "Hg

Humidity: 84%

Dew point: 44 °F

Location of SwanseaLocation

Historic Weather in Swansea — Graph

°F

Swansea temperature yesterday

Maximum temperature yesterday: 45 °F (at 3:00 PM)
Minimum temperature yesterday: 40 °F (at 2:00 AM)
Average temperature yesterday: 43 °F

Past Weeks' High & Low Weather Summary

 TemperatureHumidityPressure
High58 °F (Nov 22, 11:00 AM)97% (Nov 22, 12:00 AM)30.37 "Hg (Nov 22, 12:00 AM)
Low39 °F (Nov 24, 6:00 AM)63% (Nov 24, 3:00 PM)29.15 "Hg (Nov 12, 12:00 AM)
Average50 °F84%29.79 "Hg
* Reported Nov 11 12:00 Noon — Nov 26 12:00 Noon, Swansea, Weather by CustomWeather, © 2014

Note: Actual official high and low records may vary slightly from our data, if they occured in-between our weather recording intervals... More about our weather records

Advertising

Swansea weather history for previous 24 hours

 ConditionsComfort  
Time TempWeatherWind HumidityBarometerVisibility
12:00 PM
Nov 26
47 °FCool.3 mph85%29.91 "HgN/A
11:00 AM46 °FCool.6 mph89%29.92 "HgN/A
10:00 AM45 °FCool.3 mph91%29.93 "HgN/A
9:00 AM44 °FQuite cool.8 mph91%29.93 "HgN/A
8:00 AM44 °FQuite cool.6 mph90%29.94 "HgN/A
7:00 AM44 °FQuite cool.8 mph89%29.94 "HgN/A
6:00 AM44 °FQuite cool.8 mph90%29.94 "HgN/A
5:00 AM44 °FQuite cool.9 mph90%29.96 "HgN/A
4:00 AM44 °FQuite cool.9 mph91%29.96 "HgN/A
3:00 AM44 °FQuite cool.9 mph90%29.97 "HgN/A
2:00 AM44 °FQuite cool.9 mph88%29.98 "HgN/A
1:00 AM45 °FCool.12 mph85%30.00 "HgN/A
12:00 AM45 °FCool.13 mph84%30.02 "HgN/A
11:00 PM
Nov 25
45 °FCool.13 mph82%30.04 "HgN/A
10:00 PM45 °FQuite cool.13 mph83%30.06 "HgN/A
9:00 PM45 °FQuite cool.14 mph84%30.07 "HgN/A
8:00 PM44 °FQuite cool.12 mph87%30.09 "HgN/A
7:00 PM45 °FQuite cool.13 mph84%30.10 "HgN/A
6:00 PM44 °FQuite cool.15 mph83%30.10 "HgN/A
5:00 PM45 °FQuite cool.15 mph81%30.11 "HgN/A
4:00 PM44 °FQuite cool.16 mph84%30.12 "HgN/A
3:00 PM45 °FCool.14 mph81%30.13 "HgN/A
2:00 PM45 °FQuite cool.12 mph83%30.16 "HgN/A
1:00 PM44 °FQuite cool.13 mph83%30.18 "HgN/A
Weather by CustomWeather, © 2014

See weather overviewHow to use our weather pages